[[{"header":{"parameterUnit":"m.s-1","parameterCategory":2,"la1":30.2991,"la2":30.254,"lo1":-89.0895,"lo2":-89.0444,"dy":0.0017,"dx":0.0017,"nx":28,"ny":28,"refTime":"2025-08-31T09:00:00:Z","depth":"0","parameterNumber":2,"parameterNumberName":"U-component_of_CURRENTS"},"data":[0,0,0,0,0,0,0,0,0,0,0,0,0,0,0,0,0,0,0,0,0,0,0,0,0,0,0,0,0,0,0,0,0,0,0,0,0,0,0,0,0,0,0,0,0,0,0,0,0,0,0,0,0,0,0,0,0,0,-0.2614,-0.2616,0,-0.2704,-0.2704,-0.2705,-0.2691,-0.269,-0.2689,-0.2688,-0.2578,-0.2576,-0.2573,0,0,0,0,0,0,0,0,0,0,0,0,0,-0.2492,-0.2493,-0.2614,-0.2616,-0.2618,-0.2704,-0.2704,-0.2705,-0.2691,-0.269,-0.2689,-0.2688,-0.2579,-0.2576,-0.2573,0,0,0,0,0,0,0,0,0,0,0,0,0,-0.2552,-0.2494,-0.2614,-0.2627,-0.263,-0.2704,-0.2704,-0.2705,-0.2691,-0.269,-0.2689,-0.2688,-0.2579,-0.2576,-0.2573,-0.2576,0,0,-0.2563,-0.2561,0,0,0,0,0,0,0,0,-0.2548,-0.2555,-0.2623,-0.2626,-0.263,-0.2692,-0.2621,-0.2655,-0.2691,-0.2659,-0.2688,-0.2687,-0.2604,-0.2598,-0.2609,-0.2571,-0.2566,-0.2562,-0.256,-0.2559,-0.2558,0,0,0,0,0,0,0,-0.2544,-0.2552,-0.2641,-0.2626,-0.263,-0.2651,-0.2656,-0.2628,-0.2627,-0.2662,-0.2663,-0.2687,-0.2602,-0.2612,-0.2606,-0.2564,-0.2562,-0.256,-0.2557,-0.2556,-0.2484,-0.2484,0,0,0,0,0,0,-0.2548,-0.2548,-0.2638,-0.2645,-0.2595,-0.2654,-0.266,-0.2666,-0.2631,-0.2629,-0.2688,-0.2686,-0.2619,-0.261,-0.2602,-0.2583,-0.2559,-0.2556,-0.2554,-0.2484,-0.2484,-0.2484,0,0,0,0,0,0,-0.2545,-0.2554,-0.2635,-0.2606,-0.2618,-0.2658,-0.2665,-0.2669,-0.2677,-0.2655,-0.2646,-0.2692,-0.2617,-0.2606,-0.2571,-0.2579,-0.2554,-0.2551,-0.2484,-0.2484,-0.2484,-0.2557,0,0,0,0,0,0,-0.254,-0.2552,-0.2547,-0.2605,-0.2621,-0.2663,-0.2667,-0.2672,-0.2698,-0.2695,-0.2656,-0.2645,-0.2616,-0.2576,-0.2567,-0.2574,-0.2549,-0.2484,-0.2484,-0.2484,-0.2555,-0.256,-0.2564,0,0,0,0,0,-0.2535,-0.2529,-0.2546,-0.2557,-0.2615,-0.2664,-0.2672,-0.2692,-0.2699,-0.2695,-0.2674,-0.2646,-0.257,-0.2574,-0.2563,-0.2569,-0.2484,-0.2484,-0.2484,-0.2553,-0.2559,-0.2564,0,0,0,0,0,0,-0.2466,-0.2531,-0.2549,-0.256,-0.2607,-0.2664,-0.2666,-0.2696,-0.2684,-0.2674,-0.2648,-0.2635,-0.2608,-0.2576,-0.258,-0.2547,-0.2522,-0.252,-0.2578,-0.2583,-0.2588,-0.2583,-0.2546,0,0,0,0,0,-0.2455,-0.2466,-0.2537,-0.2543,-0.2565,-0.2619,-0.2641,-0.2666,-0.2678,-0.2673,-0.2654,-0.2625,-0.2605,-0.2583,-0.2554,-0.2535,-0.2505,-0.253,-0.2535,-0.2539,-0.2527,-0.2525,-0.2529,-0.2484,-0.2484,-0.2484,0,0,-0.2434,-0.2469,-0.2476,-0.253,-0.2562,-0.2599,-0.2625,-0.266,-0.2686,-0.2659,-0.2656,-0.2639,-0.2603,-0.2586,-0.257,-0.2557,-0.2531,-0.2539,-0.2544,-0.2529,-0.2525,-0.253,-0.2534,-0.2485,-0.2485,-0.2485,0,0,-0.2409,-0.2424,-0.2435,-0.2475,-0.2538,-0.2575,-0.2588,-0.2649,-0.266,-0.2674,-0.2663,-0.2652,-0.2617,-0.2603,-0.259,-0.26,-0.256,-0.259,-0.2607,-0.2606,-0.261,-0.2613,-0.2565,-0.2564,-0.259,-0.259,-0.259,0,-0.2389,-0.2408,-0.2445,-0.2476,-0.2511,-0.2565,-0.2598,-0.2624,-0.2665,-0.268,-0.2668,-0.2661,-0.2628,-0.2628,-0.2627,-0.2612,-0.2589,-0.2595,-0.2615,-0.2617,-0.2619,-0.2569,-0.2567,-0.2594,-0.2593,-0.2593,-0.2592,0,-0.2384,-0.2405,-0.2412,-0.2467,-0.2505,-0.2536,-0.2599,-0.2623,-0.2651,-0.2688,-0.2699,-0.2677,-0.267,-0.2667,-0.2644,-0.2649,-0.2619,-0.2628,-0.2606,-0.2628,-0.2574,-0.2569,-0.2599,-0.2597,-0.2596,-0.2595,0,0,-0.2329,-0.2399,-0.24,-0.2423,-0.2506,-0.2532,-0.258,-0.2641,-0.2667,-0.2699,-0.2727,-0.2714,-0.2719,-0.2703,-0.269,-0.2684,-0.2672,-0.2659,-0.2657,-0.262,-0.2636,-0.2568,-0.2556,-0.2695,-0.2695,-0.2695,-0.2587,0,-0.2318,-0.2351,-0.2406,-0.2442,-0.2461,-0.2539,-0.2577,-0.2638,-0.2679,-0.2708,-0.2726,-0.2729,-0.273,-0.2721,-0.2726,-0.2684,-0.2666,-0.2697,-0.261,-0.2606,-0.2553,-0.2552,-0.244,-0.2331,-0.2582,-0.2582,-0.2581,0,-0.2292,-0.2318,-0.2345,-0.242,-0.244,-0.2471,-0.2541,-0.2589,-0.2661,-0.2694,-0.2734,-0.2749,-0.2747,-0.274,-0.2702,-0.2724,-0.2676,-0.2647,-0.2642,-0.2548,-0.2531,-0.2351,-0.2314,-0.2296,-0.2574,-0.2575,-0.2575,0,-0.2195,-0.2273,-0.2282,-0.2308,-0.2403,-0.2429,-0.2482,-0.2568,-0.2594,-0.2672,-0.2679,-0.2732,-0.2698,-0.2704,-0.265,-0.2676,-0.2587,-0.2619,-0.2511,-0.2504,-0.2372,-0.2353,-0.2313,-0.2581,-0.2582,-0.2582,-0.2582,0,-0.2146,-0.2155,-0.2228,-0.2228,-0.2245,-0.2347,-0.2372,-0.2447,-0.2521,-0.2536,-0.2641,-0.2634,-0.2685,-0.2654,-0.2641,-0.2545,-0.258,-0.2496,-0.2476,-0.239,-0.2376,-0.2325,-0.2346,-0.2578,-0.2579,-0.258,-0.258,0,-0.2033,-0.2086,-0.2094,-0.2172,-0.219,-0.2194,-0.2278,-0.2303,-0.239,-0.2407,-0.2423,-0.2514,-0.2502,-0.2529,-0.2499,-0.2479,-0.2381,-0.2387,-0.2259,-0.2228,-0.2142,-0.217,-0.2069,-0.2014,-0.2266,-0.2264,-0.2262,0,-0.1979,-0.1962,-0.2006,-0.2007,-0.2036,-0.2062,-0.2088,-0.2205,-0.2235,-0.232,-0.2311,-0.2329,-0.2341,-0.2286,-0.2279,-0.2245,-0.225,-0.2096,-0.2139,-0.2104,-0.2122,-0.2142,-0.2106,-0.1978,-0.1974,-0.1971,-0.1968,0,-0.1864,-0.1869,-0.1876,-0.1867,-0.1879,-0.1902,-0.1946,-0.1949,-0.2082,-0.2101,-0.2133,-0.2153,-0.2141,-0.209,-0.2052,-0.2023,-0.2044,-0.2026,-0.2029,-0.1919,-0.1895,-0.1843,-0.2062,-0.1938,-0.1941,-0.1943,-0.1945,-0.1946,-0.1762,-0.1733,-0.1731,-0.1722,-0.1737,-0.1741,-0.1721,-0.1789,-0.1807,-0.1843,-0.1925,-0.1928,-0.1919,-0.1883,-0.1849,-0.175,-0.1831,-0.1709,-0.1748,-0.1773,-0.172,-0.1856,-0.1701,-0.1702,-0.1703,-0.1705,-0.1706,0,-0.1629,-0.1613,-0.1595,-0.1582,-0.1556,-0.1608,-0.1625,-0.1601,-0.1587,-0.1659,-0.1677,-0.1689,-0.1618,-0.1629,-0.1561,-0.1497,-0.1477,-0.1463,-0.1474,-0.1453,-0.1587,-0.1576,-0.1338,-0.1338,-0.1339,-0.1339,-0.1339,-0.1339,-0.1562,-0.1493,-0.1488,-0.1402,-0.1396,-0.1327,-0.1312,-0.13,-0.1327,-0.1336,-0.1381,-0.1458,-0.1475,-0.1533,-0.1433,-0.1363,-0.1349,-0.1286,-0.1341,-0.1457,-0.1484,-0.151,-0.1505,-0.1257,-0.1257,-0.1137,-0.1137,-0.1136]},{"header":{"parameterUnit":"m.s-1","parameterCategory":2,"la1":30.2991,"la2":30.254,"lo1":-89.0895,"lo2":-89.0444,"dy":0.0017,"dx":0.0017,"nx":28,"ny":28,"refTime":"2025-08-31T09:00:00:Z","depth":"0","parameterNumber":3,"parameterNumberName":"V-component_of_CURRENTS"},"data":[0,0,0,0,0,0,0,0,0,0,0,0,0,0,0,0,0,0,0,0,0,0,0,0,0,0,0,0,0,0,0,0,0,0,0,0,0,0,0,0,0,0,0,0,0,0,0,0,0,0,0,0,0,0,0,0,0,0,-0.0324,-0.0323,0,-0.0303,-0.0303,-0.0303,-0.0322,-0.0323,-0.0324,-0.0324,-0.0295,-0.0293,-0.0292,0,0,0,0,0,0,0,0,0,0,0,0,0,-0.0398,-0.0397,-0.0324,-0.0323,-0.0323,-0.0303,-0.0303,-0.0303,-0.0322,-0.0323,-0.0324,-0.0325,-0.0295,-0.0293,-0.0292,0,0,0,0,0,0,0,0,0,0,0,0,0,-0.0372,-0.0396,-0.0324,-0.0329,-0.0329,-0.0303,-0.0303,-0.0302,-0.0322,-0.0323,-0.0324,-0.0325,-0.0296,-0.0294,-0.0291,-0.0259,0,0,-0.0285,-0.0284,0,0,0,0,0,0,0,0,-0.0373,-0.0369,-0.0329,-0.0329,-0.0329,-0.0315,-0.0318,-0.0287,-0.0322,-0.0327,-0.0324,-0.0326,-0.0299,-0.0296,-0.0293,-0.0258,-0.0256,-0.0285,-0.0284,-0.0283,-0.0282,0,0,0,0,0,0,0,-0.0375,-0.0371,-0.0317,-0.0328,-0.0328,-0.0339,-0.0336,-0.0313,-0.0308,-0.0326,-0.0327,-0.0322,-0.0299,-0.0295,-0.0292,-0.0256,-0.0285,-0.0283,-0.0282,-0.0281,-0.0205,-0.0204,0,0,0,0,0,0,-0.0372,-0.0372,-0.0318,-0.0316,-0.0352,-0.0336,-0.0333,-0.032,-0.0309,-0.0308,-0.0321,-0.0323,-0.0298,-0.0295,-0.0291,-0.0257,-0.0283,-0.0281,-0.028,-0.0206,-0.0205,-0.0204,0,0,0,0,0,0,-0.0374,-0.0367,-0.0318,-0.0343,-0.0338,-0.0334,-0.0318,-0.0319,-0.0319,-0.0305,-0.0304,-0.0321,-0.0298,-0.0294,-0.0266,-0.0256,-0.028,-0.0278,-0.0207,-0.0205,-0.0204,-0.0185,0,0,0,0,0,0,-0.0376,-0.0368,-0.0363,-0.0342,-0.0336,-0.0304,-0.0317,-0.0318,-0.0313,-0.0315,-0.0304,-0.0302,-0.0299,-0.0269,-0.0264,-0.0253,-0.0276,-0.0207,-0.0206,-0.0205,-0.0187,-0.0184,-0.0181,0,0,0,0,0,-0.0378,-0.0376,-0.0362,-0.0356,-0.0327,-0.0304,-0.0301,-0.0304,-0.0312,-0.0308,-0.0297,-0.0303,-0.0257,-0.0266,-0.0261,-0.0249,-0.0208,-0.0206,-0.0205,-0.0188,-0.0184,-0.0181,0,0,0,0,0,0,-0.042,-0.0376,-0.0362,-0.0349,-0.0324,-0.0307,-0.0311,-0.0301,-0.029,-0.0296,-0.0285,-0.0282,-0.0255,-0.0251,-0.0262,-0.0224,-0.0236,-0.0233,-0.0226,-0.0222,-0.0219,-0.0237,-0.0274,0,0,0,0,0,-0.0419,-0.0398,-0.0361,-0.0351,-0.0341,-0.0321,-0.0315,-0.0309,-0.0293,-0.029,-0.0275,-0.0261,-0.0241,-0.0232,-0.0214,-0.0187,-0.0178,-0.0178,-0.0175,-0.0173,-0.0183,-0.0145,-0.014,-0.0198,-0.0198,-0.0198,0,0,-0.0435,-0.0406,-0.0398,-0.0357,-0.0344,-0.0331,-0.0321,-0.0311,-0.0299,-0.0286,-0.0269,-0.0246,-0.023,-0.0203,-0.0192,-0.02,-0.015,-0.0171,-0.0169,-0.0181,-0.0143,-0.0137,-0.0132,-0.0197,-0.0197,-0.0197,0,0,-0.046,-0.0427,-0.0421,-0.0397,-0.0366,-0.0345,-0.0339,-0.0309,-0.0298,-0.0266,-0.0256,-0.0222,-0.0196,-0.0175,-0.0165,-0.0131,-0.0133,-0.0132,-0.0132,-0.0095,-0.009,-0.0085,-0.0061,-0.0054,-0.0133,-0.0133,-0.0133,0,-0.0486,-0.0463,-0.0419,-0.0409,-0.0399,-0.0351,-0.0351,-0.0321,-0.0284,-0.0271,-0.0263,-0.0207,-0.0182,-0.015,-0.0139,-0.0124,-0.0113,-0.0147,-0.0091,-0.0086,-0.0082,-0.0058,-0.0051,-0.0132,-0.0132,-0.0132,-0.0132,0,-0.0502,-0.0486,-0.0484,-0.0446,-0.0427,-0.0417,-0.0368,-0.0341,-0.0313,-0.0282,-0.0237,-0.019,-0.0165,-0.0141,-0.0129,-0.0089,-0.0093,-0.0088,-0.0102,-0.0075,-0.0051,-0.0045,-0.0131,-0.0131,-0.0131,-0.0132,0,0,-0.0557,-0.0506,-0.0506,-0.0501,-0.0447,-0.0437,-0.0403,-0.0361,-0.035,-0.0285,-0.0268,-0.0198,-0.017,-0.0156,-0.0124,-0.0083,-0.0026,-0.0077,-0.0076,-0.0056,0.0044,0.0079,0.009,-0.0014,-0.0013,-0.0012,0.0051,0,-0.0587,-0.0583,-0.0543,-0.0541,-0.0538,-0.0482,-0.0461,-0.0414,-0.0365,-0.0329,-0.0255,-0.0224,-0.0177,-0.0164,-0.011,-0.0055,-0.001,-0.0045,0.0017,0.0019,0.0045,0.0099,0.0125,0.0187,0.0057,0.0058,0.0059,0,-0.0616,-0.0608,-0.0614,-0.0592,-0.0588,-0.0576,-0.0538,-0.051,-0.0435,-0.04,-0.0338,-0.0284,-0.0207,-0.0175,-0.0055,-0.0084,-0.0022,0.003,0.0033,0.006,0.0067,0.0139,0.0204,0.0325,0.007,0.0069,0.0068,0,-0.0675,-0.0659,-0.0667,-0.0658,-0.0622,-0.0619,-0.0597,-0.0536,-0.0518,-0.0444,-0.0423,-0.0325,-0.0281,-0.0182,-0.0057,-0.0062,0.007,0.0074,0.0167,0.0169,0.02,0.0204,0.0386,0.0159,0.0159,0.0158,0.0158,0,-0.0718,-0.0726,-0.0698,-0.0703,-0.0723,-0.0679,-0.0682,-0.0644,-0.0593,-0.0574,-0.0468,-0.043,-0.0281,-0.018,-0.0073,0.0075,0.0062,0.0176,0.0196,0.0209,0.0212,0.0324,0.036,0.0161,0.016,0.016,0.0159,0,-0.0772,-0.0753,-0.0765,-0.0748,-0.0748,-0.0762,-0.0743,-0.0741,-0.0684,-0.0654,-0.0634,-0.0507,-0.0368,-0.0212,-0.0049,0.0052,0.0263,0.0239,0.024,0.026,0.0457,0.0491,0.0654,0.0718,0.0348,0.035,0.0351,0,-0.0794,-0.0804,-0.0807,-0.0825,-0.0819,-0.083,-0.0838,-0.0793,-0.0784,-0.0697,-0.0688,-0.0548,-0.0432,-0.017,0.0035,0.024,0.0327,0.0371,0.0379,0.0489,0.0541,0.0561,0.0604,0.0427,0.0428,0.043,0.0431,0,-0.0835,-0.0833,-0.0844,-0.0884,-0.0904,-0.0923,-0.0926,-0.0935,-0.0876,-0.0831,-0.0748,-0.0647,-0.0376,-0.0119,0.0155,0.0279,0.0461,0.0405,0.0528,0.0631,0.0656,0.0719,0.0352,0.0443,0.0442,0.0441,0.044,0.044,-0.0861,-0.0884,-0.0898,-0.0937,-0.0968,-0.0999,-0.1012,-0.1001,-0.0979,-0.0893,-0.0798,-0.0615,-0.0246,0.0157,0.0299,0.0615,0.0579,0.0706,0.074,0.0752,0.082,0.0477,0.0585,0.0585,0.0585,0.0584,0.0584,0,-0.0884,-0.0908,-0.095,-0.0994,-0.1036,-0.1034,-0.1055,-0.1043,-0.1012,-0.09,-0.0784,-0.0374,-0.0006,0.0336,0.0777,0.0943,0.0973,0.1021,0.1065,0.1094,0.0808,0.0819,0.0973,0.0972,0.0972,0.0972,0.0972,0.0972,-0.0897,-0.0937,-0.0958,-0.1033,-0.1066,-0.1095,-0.1102,-0.1067,-0.0984,-0.077,-0.054,-0.0361,0.0139,0.0825,0.1226,0.1261,0.1387,0.1373,0.1441,0.1252,0.1225,0.1199,0.1222,0.1458,0.1458,0.172,0.1723,0.1725]}],[{"header":{"parameterUnit":"m.s-1","parameterCategory":2,"la1":30.2991,"la2":30.254,"lo1":-89.0895,"lo2":-89.0444,"dy":0.0017,"dx":0.0017,"nx":28,"ny":28,"refTime":"2025-08-31T09:00:00:Z","depth":"2","parameterNumber":2,"parameterNumberName":"U-component_of_CURRENTS"},"data":[0,0,0,0,0,0,0,0,0,0,0,0,0,0,0,0,0,0,0,0,0,0,0,0,0,0,0,0,0,0,0,0,0,0,0,0,0,0,0,0,0,0,0,0,0,0,0,0,0,0,0,0,0,0,0,0,0,0,-0.2133,-0.2135,0,-0.2283,-0.2285,-0.2287,-0.2363,-0.2363,-0.2363,-0.2363,-0.2302,-0.2301,-0.2299,0,0,0,0,0,0,0,0,0,0,0,0,0,-0.2021,-0.2022,-0.2133,-0.2135,-0.2137,-0.2283,-0.2285,-0.2287,-0.2363,-0.2363,-0.2363,-0.2363,-0.2303,-0.2301,-0.2299,0,0,0,0,0,0,0,0,0,0,0,0,0,-0.2111,-0.2022,-0.2133,-0.2191,-0.2198,-0.2282,-0.2285,-0.2288,-0.2363,-0.2363,-0.2363,-0.2362,-0.2303,-0.2301,-0.2299,-0.2286,0,0,-0.2292,-0.229,0,0,0,0,0,0,0,0,-0.2106,-0.2115,-0.2181,-0.2187,-0.2195,-0.2303,-0.2223,-0.2276,-0.2363,-0.2301,-0.2363,-0.2362,-0.2282,-0.2282,-0.2315,-0.2283,-0.228,-0.2291,-0.229,-0.2289,-0.2288,0,0,0,0,0,0,0,-0.2099,-0.211,-0.2194,-0.2183,-0.2191,-0.2247,-0.2259,-0.2235,-0.2287,-0.2307,-0.2312,-0.2327,-0.2285,-0.2317,-0.2313,-0.228,-0.2291,-0.2289,-0.2288,-0.2287,-0.2296,-0.2297,0,0,0,0,0,0,-0.2073,-0.2103,-0.2189,-0.2198,-0.2148,-0.2248,-0.2262,-0.2269,-0.2292,-0.2297,-0.2327,-0.233,-0.2321,-0.2316,-0.2311,-0.2332,-0.2289,-0.2287,-0.2285,-0.2294,-0.2296,-0.2298,0,0,0,0,0,0,-0.207,-0.2079,-0.2183,-0.2154,-0.2171,-0.2249,-0.2258,-0.2272,-0.232,-0.231,-0.2311,-0.2361,-0.2321,-0.2314,-0.2329,-0.2328,-0.2286,-0.2284,-0.2292,-0.2295,-0.2297,-0.235,0,0,0,0,0,0,-0.2066,-0.2076,-0.2079,-0.2151,-0.2171,-0.223,-0.2259,-0.2275,-0.2328,-0.2334,-0.2338,-0.2333,-0.232,-0.2333,-0.2327,-0.2324,-0.2282,-0.229,-0.2293,-0.2296,-0.2346,-0.2354,-0.236,0,0,0,0,0,-0.2061,-0.2074,-0.2077,-0.2088,-0.2169,-0.223,-0.2246,-0.2303,-0.2329,-0.2347,-0.2377,-0.2334,-0.2347,-0.2334,-0.2326,-0.2322,-0.2289,-0.2292,-0.2296,-0.2343,-0.2352,-0.236,0,0,0,0,0,0,-0.2029,-0.2085,-0.209,-0.2118,-0.2162,-0.2243,-0.2269,-0.2311,-0.2356,-0.2356,-0.2359,-0.2356,-0.2366,-0.2346,-0.2331,-0.2338,-0.2308,-0.231,-0.2346,-0.2355,-0.2362,-0.2334,-0.228,0,0,0,0,0,-0.2018,-0.2039,-0.2094,-0.2112,-0.2132,-0.2201,-0.2236,-0.2271,-0.2319,-0.2342,-0.2348,-0.2357,-0.2375,-0.2368,-0.2366,-0.2366,-0.233,-0.236,-0.2367,-0.2373,-0.2349,-0.2351,-0.2356,-0.231,-0.231,-0.231,0,0,-0.2007,-0.2042,-0.2052,-0.2106,-0.2145,-0.2186,-0.2223,-0.227,-0.231,-0.2319,-0.2363,-0.2376,-0.2384,-0.24,-0.24,-0.238,-0.2364,-0.2378,-0.2383,-0.2354,-0.2355,-0.2359,-0.2363,-0.2312,-0.2312,-0.2311,0,0,-0.2003,-0.2026,-0.2041,-0.2082,-0.2134,-0.2177,-0.2191,-0.2262,-0.2297,-0.2347,-0.2369,-0.2391,-0.241,-0.2419,-0.243,-0.2471,-0.2407,-0.2468,-0.2471,-0.2475,-0.2478,-0.248,-0.2418,-0.2415,-0.2466,-0.2466,-0.2466,0,-0.1982,-0.2012,-0.2055,-0.2087,-0.2119,-0.2174,-0.2201,-0.2254,-0.2322,-0.2343,-0.2358,-0.2422,-0.242,-0.2455,-0.2477,-0.2481,-0.2455,-0.2437,-0.2482,-0.2484,-0.2485,-0.2421,-0.2416,-0.2469,-0.2469,-0.2468,-0.2468,0,-0.1995,-0.202,-0.2036,-0.2087,-0.2128,-0.2159,-0.2225,-0.2263,-0.2312,-0.2358,-0.2404,-0.2434,-0.2465,-0.2477,-0.2491,-0.2504,-0.2471,-0.2495,-0.2454,-0.2492,-0.2423,-0.2417,-0.2473,-0.2472,-0.2471,-0.2471,0,0,-0.1942,-0.2023,-0.2029,-0.2049,-0.2128,-0.2161,-0.2221,-0.2283,-0.2319,-0.238,-0.2419,-0.2475,-0.2485,-0.2497,-0.2512,-0.2514,-0.2501,-0.2506,-0.2505,-0.243,-0.2462,-0.2403,-0.2389,-0.2543,-0.2543,-0.2543,-0.2401,0,-0.1931,-0.1974,-0.2027,-0.2072,-0.2097,-0.2166,-0.2219,-0.2283,-0.2338,-0.2384,-0.243,-0.2467,-0.2498,-0.2507,-0.2523,-0.2511,-0.2491,-0.2533,-0.2445,-0.2441,-0.2375,-0.2384,-0.2224,-0.2083,-0.2395,-0.2394,-0.2393,0,-0.1922,-0.1957,-0.1986,-0.2058,-0.2075,-0.2112,-0.2187,-0.2242,-0.2323,-0.2364,-0.2415,-0.2451,-0.2471,-0.2493,-0.2479,-0.2508,-0.2477,-0.2462,-0.2457,-0.2373,-0.2372,-0.2101,-0.206,-0.2382,-0.2383,-0.2384,-0.2384,0,-0.1857,-0.1928,-0.1943,-0.1971,-0.2063,-0.2087,-0.2137,-0.2224,-0.2258,-0.2334,-0.2351,-0.2411,-0.241,-0.2424,-0.2414,-0.2444,-0.2372,-0.2412,-0.2316,-0.2308,-0.2135,-0.2114,-0.2377,-0.2377,-0.2377,-0.2378,-0.2378,0,-0.1821,-0.1838,-0.1911,-0.1925,-0.1947,-0.2034,-0.2063,-0.213,-0.2199,-0.2222,-0.2319,-0.2329,-0.2396,-0.2384,-0.2385,-0.2317,-0.2349,-0.2289,-0.2275,-0.2149,-0.2131,-0.2371,-0.2373,-0.2372,-0.2374,-0.2375,-0.2376,0,-0.174,-0.1791,-0.1813,-0.1893,-0.1912,-0.1927,-0.1999,-0.2026,-0.2105,-0.213,-0.2147,-0.2235,-0.2234,-0.2268,-0.2254,-0.2245,-0.2209,-0.2171,-0.1987,-0.1956,-0.2138,-0.2144,-0.204,-0.2037,-0.2034,-0.2032,-0.203,0,-0.1696,-0.1698,-0.1759,-0.1766,-0.1795,-0.1831,-0.1857,-0.1958,-0.1985,-0.2067,-0.2063,-0.2087,-0.2098,-0.2054,-0.2049,-0.2007,-0.2098,-0.1818,-0.1864,-0.2109,-0.2107,-0.2117,-0.2126,-0.1632,-0.1627,-0.1623,-0.162,0,-0.1608,-0.1626,-0.1644,-0.1658,-0.1678,-0.1702,-0.1746,-0.1753,-0.1865,-0.1887,-0.1913,-0.1926,-0.1916,-0.1828,-0.1789,-0.1755,-0.1828,-0.1735,-0.2025,-0.1769,-0.1722,-0.1721,-0.1744,-0.1584,-0.1587,-0.159,-0.1592,-0.1594,-0.1525,-0.151,-0.1531,-0.1535,-0.1558,-0.1563,-0.1547,-0.1605,-0.1621,-0.1643,-0.172,-0.1692,-0.1696,-0.1583,-0.1512,-0.1466,-0.1606,-0.1536,-0.1549,-0.1567,-0.1572,-0.1526,-0.1347,-0.1349,-0.1351,-0.1353,-0.1354,0,-0.1413,-0.1411,-0.141,-0.1413,-0.1395,-0.1447,-0.1463,-0.1435,-0.1414,-0.1458,-0.1464,-0.1333,-0.1273,-0.1294,-0.1177,-0.116,-0.1161,-0.1103,-0.1105,-0.114,-0.1172,-0.116,-0.0823,-0.0822,-0.082,-0.0819,0,0,-0.1354,-0.1309,-0.1311,-0.1247,-0.1251,-0.1192,-0.1176,-0.1154,-0.1159,-0.1118,-0.1106,-0.1201,-0.1247,-0.1034,-0.0984,-0.0887,-0.1004,-0.0838,-0.1261,-0.1297,-0.1327,-0.1414,-0.1434,0,0,0,0,0]},{"header":{"parameterUnit":"m.s-1","parameterCategory":2,"la1":30.2991,"la2":30.254,"lo1":-89.0895,"lo2":-89.0444,"dy":0.0017,"dx":0.0017,"nx":28,"ny":28,"refTime":"2025-08-31T09:00:00:Z","depth":"2","parameterNumber":3,"parameterNumberName":"V-component_of_CURRENTS"},"data":[0,0,0,0,0,0,0,0,0,0,0,0,0,0,0,0,0,0,0,0,0,0,0,0,0,0,0,0,0,0,0,0,0,0,0,0,0,0,0,0,0,0,0,0,0,0,0,0,0,0,0,0,0,0,0,0,0,0,-0.009,-0.0089,0,-0.0034,-0.0033,-0.0033,-0.0003,-0.0002,-0.0002,-0.0002,0.0083,0.0085,0.0087,0,0,0,0,0,0,0,0,0,0,0,0,0,-0.018,-0.0178,-0.009,-0.0089,-0.0088,-0.0034,-0.0033,-0.0032,-0.0003,-0.0002,-0.0002,-0.0002,0.0082,0.0085,0.0087,0,0,0,0,0,0,0,0,0,0,0,0,0,-0.0136,-0.0178,-0.009,-0.0065,-0.0062,-0.0034,-0.0033,-0.0032,-0.0003,-0.0002,-0.0002,-0.0002,0.0082,0.0084,0.0087,0.0099,0,0,0.0097,0.0098,0,0,0,0,0,0,0,0,-0.0138,-0.0133,-0.007,-0.0067,-0.0064,-0.0023,-0.0033,0.0014,-0.0003,-0.0028,-0.0002,-0.0001,0.0051,0.0057,0.0063,0.0103,0.0106,0.0097,0.0099,0.01,0.0101,0,0,0,0,0,0,0,-0.0141,-0.0135,-0.007,-0.0069,-0.0065,-0.0059,-0.0053,-0.0025,0.0008,-0.0025,-0.0023,-0.0013,0.0053,0.006,0.0066,0.0108,0.0097,0.01,0.0102,0.0103,0.0111,0.0109,0,0,0,0,0,0,-0.0144,-0.0138,-0.0072,-0.0068,-0.0098,-0.0058,-0.0051,-0.0038,0.0007,0.0015,-0.0013,-0.0012,0.0055,0.0062,0.0069,0.0087,0.01,0.0103,0.0105,0.0113,0.0111,0.0109,0,0,0,0,0,0,-0.0146,-0.0139,-0.0074,-0.01,-0.0091,-0.0056,-0.0043,-0.0037,-0.0033,0.0016,0.0024,-0.0015,0.0055,0.0065,0.0072,0.0091,0.0104,0.0107,0.0114,0.0112,0.011,0.0123,0,0,0,0,0,0,-0.0149,-0.014,-0.0139,-0.01,-0.009,-0.0061,-0.0043,-0.0036,-0.0027,-0.0024,0.0017,0.0026,0.0056,0.0067,0.0075,0.0095,0.011,0.0116,0.0113,0.011,0.0124,0.0121,0.0118,0,0,0,0,0,-0.0152,-0.016,-0.014,-0.0132,-0.0088,-0.0061,-0.0056,-0.0031,-0.0027,-0.0027,-0.0014,0.0024,0.0054,0.0068,0.0078,0.01,0.0118,0.0114,0.0111,0.0126,0.0122,0.0118,0,0,0,0,0,0,-0.0205,-0.0156,-0.0133,-0.0126,-0.0094,-0.0055,-0.0059,-0.0038,-0.0028,-0.003,0.0009,0.0018,0.0037,0.0046,0.0061,0.0084,0.009,0.0088,0.0098,0.0095,0.0092,0.0089,0.0112,0,0,0,0,0,-0.0213,-0.0202,-0.0152,-0.0147,-0.0135,-0.0098,-0.0087,-0.0065,-0.0045,-0.004,-0.0007,0.001,0.0029,0.0042,0.0062,0.0075,0.0095,0.0087,0.0085,0.0082,0.008,0.0119,0.0121,0.0097,0.0097,0.0097,0,0,-0.0232,-0.0203,-0.0197,-0.0156,-0.0135,-0.0122,-0.0092,-0.0078,-0.0064,-0.0032,-0.0016,0.0008,0.0026,0.0046,0.0054,0.0058,0.0095,0.0078,0.0077,0.0076,0.0116,0.0119,0.0122,0.0095,0.0095,0.0095,0,0,-0.0266,-0.0239,-0.0241,-0.0217,-0.0179,-0.015,-0.0148,-0.0105,-0.0086,-0.0067,-0.0042,-0.0016,0.0009,0.004,0.0053,0.0037,0.0079,0.0036,0.0029,0.0066,0.007,0.0074,0.0096,0.0101,0.0034,0.0034,0.0034,0,-0.0289,-0.028,-0.024,-0.0235,-0.0222,-0.0167,-0.0168,-0.0138,-0.0095,-0.008,-0.0068,-0.0021,0.0011,0.0038,0.0034,0.004,0.0053,0.0053,0.0068,0.0072,0.0075,0.0097,0.0103,0.0034,0.0034,0.0034,0.0034,0,-0.0321,-0.0313,-0.0317,-0.0286,-0.0268,-0.026,-0.0208,-0.0185,-0.0152,-0.0113,-0.0077,-0.0034,-0.0007,0.0012,0.0025,0.0059,0.0057,0.0068,0.0091,0.0079,0.0102,0.0108,0.0034,0.0034,0.0034,0.0034,0,0,-0.037,-0.0342,-0.0344,-0.0341,-0.0293,-0.0284,-0.0258,-0.0215,-0.0203,-0.0142,-0.0122,-0.0064,-0.003,-0.0017,0.0016,0.0056,0.0104,0.0067,0.0069,0.0112,0.0174,0.02,0.0209,0.012,0.0122,0.0122,0.0179,0,-0.0404,-0.0415,-0.0385,-0.0393,-0.0395,-0.034,-0.0325,-0.0278,-0.0229,-0.0193,-0.0121,-0.0091,-0.0044,-0.0031,0.0021,0.0079,0.0119,0.0087,0.0157,0.0159,0.0204,0.0218,0.0199,0.025,0.0185,0.0186,0.0187,0,-0.0442,-0.0445,-0.0462,-0.0447,-0.0444,-0.0437,-0.0403,-0.0378,-0.0305,-0.027,-0.0209,-0.0153,-0.008,-0.0046,0.007,0.0043,0.0105,0.0156,0.016,0.0186,0.0197,0.0248,0.0264,0.0197,0.0197,0.0196,0.0195,0,-0.0501,-0.0497,-0.0515,-0.0509,-0.0483,-0.0482,-0.0463,-0.0405,-0.0385,-0.0315,-0.0292,-0.0198,-0.0154,-0.0057,0.0067,0.0063,0.0191,0.0199,0.0281,0.0283,0.0281,0.0281,0.0279,0.0279,0.0279,0.0279,0.0279,0,-0.0546,-0.056,-0.0547,-0.0558,-0.0582,-0.0543,-0.0547,-0.0511,-0.0462,-0.0439,-0.0338,-0.0298,-0.0153,-0.0055,0.005,0.019,0.0182,0.0286,0.0307,0.0281,0.0281,0.0243,0.0238,0.0281,0.028,0.028,0.028,0,-0.06,-0.059,-0.0613,-0.0608,-0.0609,-0.0626,-0.0607,-0.0604,-0.055,-0.0517,-0.0498,-0.0371,-0.0237,-0.0088,0.0071,0.0166,0.0294,0.0342,0.0298,0.0313,0.036,0.0354,0.0434,0.0436,0.0437,0.0438,0.0439,0,-0.0624,-0.0643,-0.066,-0.068,-0.0678,-0.0692,-0.0699,-0.0656,-0.0644,-0.0555,-0.0542,-0.0408,-0.0295,-0.0048,0.0138,0.0327,0.0328,0.041,0.0413,0.0368,0.0379,0.0372,0.0364,0.0407,0.0408,0.0408,0.0409,0,-0.0669,-0.0675,-0.0694,-0.074,-0.0761,-0.0778,-0.0779,-0.0785,-0.0725,-0.0678,-0.059,-0.0493,-0.0245,-0.0027,0.0219,0.0327,0.0381,0.0426,0.0401,0.0373,0.0348,0.0357,0.035,0.0413,0.0413,0.0412,0.0412,0.0412,-0.0695,-0.0724,-0.0752,-0.0792,-0.0822,-0.0847,-0.0857,-0.084,-0.0813,-0.0723,-0.0633,-0.0463,-0.0254,0.0107,0.028,0.0442,0.0442,0.0483,0.0479,0.0476,0.0464,0.0443,0.0523,0.0524,0.0524,0.0524,0.0524,0,-0.072,-0.0753,-0.0798,-0.0844,-0.0882,-0.0882,-0.0894,-0.0877,-0.0839,-0.0731,-0.0619,-0.0378,-0.0124,0.0093,0.0358,0.0512,0.0497,0.053,0.0479,0.0475,0.0471,0.0457,0.0516,0.0516,0.0516,0.0516,0,0,-0.0733,-0.0782,-0.0807,-0.0877,-0.091,-0.0936,-0.0938,-0.0895,-0.0814,-0.0699,-0.0566,-0.0384,-0.0112,0.0068,0.0263,0.0399,0.0394,0.0408,0.0401,0.0315,0.0309,0.0434,0.0406,0,0,0,0,0]}],[{"header":{"parameterUnit":"m.s-1","parameterCategory":2,"la1":30.2991,"la2":30.254,"lo1":-89.0895,"lo2":-89.0444,"dy":0.0017,"dx":0.0017,"nx":28,"ny":28,"refTime":"2025-08-31T09:00:00:Z","depth":"4","parameterNumber":2,"parameterNumberName":"U-component_of_CURRENTS"},"data":[0,0,0,0,0,0,0,0,0,0,0,0,0,0,0,0,0,0,0,0,0,0,0,0,0,0,0,0,0,0,0,0,0,0,0,0,0,0,0,0,0,0,0,0,0,0,0,0,0,0,0,0,0,0,0,0,0,0,-0.1035,-0.1034,0,-0.0964,-0.0964,-0.0964,-0.0919,-0.0918,-0.0918,-0.0917,-0.0966,-0.0968,-0.097,0,0,0,0,0,0,0,0,0,0,0,0,0,-0.1071,-0.1072,-0.1036,-0.1034,-0.1033,-0.0964,-0.0964,-0.0964,-0.0919,-0.0918,-0.0917,-0.0917,-0.0965,-0.0968,-0.097,0,0,0,0,0,0,0,0,0,0,0,0,0,-0.104,-0.1072,-0.1036,-0.0998,-0.0993,-0.0964,-0.0964,-0.0964,-0.092,-0.0918,-0.0917,-0.0916,-0.0964,-0.0967,-0.097,-0.1014,0,0,-0.098,-0.0981,0,0,0,0,0,0,0,0,-0.1042,-0.1039,-0.1005,-0.1,-0.0995,-0.0944,-0.0994,-0.0984,-0.092,-0.0954,-0.0917,-0.0915,-0.0967,-0.0969,-0.0966,-0.1016,-0.1018,-0.098,-0.0982,-0.0983,-0.0984,0,0,0,0,0,0,0,-0.1044,-0.1042,-0.1014,-0.1003,-0.0997,-0.0962,-0.0958,-0.0992,-0.0975,-0.0951,-0.0946,-0.0929,-0.0965,-0.0963,-0.0967,-0.1019,-0.098,-0.0983,-0.0985,-0.0986,-0.1103,-0.1105,0,0,0,0,0,0,-0.1045,-0.1045,-0.1016,-0.1011,-0.1009,-0.0963,-0.0958,-0.0967,-0.0972,-0.0969,-0.093,-0.0927,-0.0958,-0.0963,-0.0969,-0.1036,-0.0983,-0.0986,-0.0988,-0.1102,-0.1104,-0.1105,0,0,0,0,0,0,-0.1047,-0.1045,-0.1019,-0.1019,-0.1013,-0.0963,-0.0973,-0.0966,-0.097,-0.0953,-0.0953,-0.0941,-0.0957,-0.0964,-0.0993,-0.1037,-0.0988,-0.099,-0.1101,-0.1103,-0.1104,-0.1161,0,0,0,0,0,0,-0.1049,-0.1047,-0.1059,-0.102,-0.1012,-0.102,-0.0974,-0.0965,-0.0957,-0.0953,-0.0964,-0.0966,-0.0957,-0.0988,-0.0996,-0.104,-0.0993,-0.1099,-0.1101,-0.1104,-0.1157,-0.1164,-0.1171,0,0,0,0,0,-0.1051,-0.1072,-0.1061,-0.1057,-0.1031,-0.1021,-0.1016,-0.0978,-0.0959,-0.0977,-0.0965,-0.0966,-0.1009,-0.0992,-0.1001,-0.1047,-0.1098,-0.1101,-0.1104,-0.1154,-0.1163,-0.117,0,0,0,0,0,0,-0.1078,-0.1068,-0.1055,-0.1068,-0.1053,-0.1011,-0.1019,-0.0994,-0.0998,-0.1001,-0.0982,-0.0985,-0.1022,-0.1029,-0.101,-0.1085,-0.1056,-0.106,-0.1091,-0.11,-0.1106,-0.1121,-0.0995,0,0,0,0,0,-0.1095,-0.112,-0.1091,-0.1102,-0.1103,-0.1068,-0.106,-0.1041,-0.1028,-0.1028,-0.1033,-0.1039,-0.1042,-0.1064,-0.1073,-0.1128,-0.1133,-0.1163,-0.1169,-0.1175,-0.1192,-0.1208,-0.1218,-0.1114,-0.1114,-0.1114,0,0,-0.11,-0.1102,-0.111,-0.1111,-0.1101,-0.1106,-0.1064,-0.1069,-0.1069,-0.1039,-0.1068,-0.1065,-0.1057,-0.1096,-0.1117,-0.1111,-0.1211,-0.1178,-0.1183,-0.1198,-0.1212,-0.1222,-0.1231,-0.1116,-0.1116,-0.1116,0,0,-0.1125,-0.1141,-0.1167,-0.1169,-0.1164,-0.1149,-0.1156,-0.1142,-0.114,-0.1158,-0.1127,-0.1149,-0.1172,-0.1174,-0.1172,-0.1229,-0.1234,-0.124,-0.1304,-0.1319,-0.1328,-0.1336,-0.1372,-0.1382,-0.1257,-0.1257,-0.1257,0,-0.1127,-0.1162,-0.1169,-0.119,-0.119,-0.1173,-0.1188,-0.1187,-0.1182,-0.1193,-0.1179,-0.1206,-0.1206,-0.1237,-0.1249,-0.1248,-0.126,-0.1272,-0.1328,-0.1336,-0.1342,-0.1377,-0.1388,-0.126,-0.126,-0.1259,-0.1259,0,-0.1161,-0.1193,-0.1213,-0.1241,-0.1245,-0.1267,-0.1256,-0.1284,-0.1282,-0.1271,-0.131,-0.1306,-0.1324,-0.133,-0.1306,-0.1364,-0.1358,-0.1322,-0.1308,-0.1356,-0.139,-0.14,-0.1264,-0.1263,-0.1262,-0.1262,0,0,-0.115,-0.1224,-0.1232,-0.1261,-0.128,-0.129,-0.1317,-0.1335,-0.1363,-0.1375,-0.1408,-0.1419,-0.1428,-0.1428,-0.1419,-0.1443,-0.1502,-0.1416,-0.1415,-0.1452,-0.1557,-0.1416,-0.1413,-0.1471,-0.1473,-0.1474,-0.1567,0,-0.1171,-0.1242,-0.1262,-0.1314,-0.1345,-0.1357,-0.1383,-0.14,-0.1414,-0.1454,-0.1459,-0.1489,-0.1459,-0.1485,-0.1501,-0.1497,-0.1529,-0.1482,-0.1505,-0.1506,-0.1373,-0.1419,-0.148,-0.1575,-0.1577,-0.1579,-0.158,0,-0.1179,-0.1238,-0.1303,-0.1375,-0.1389,-0.1416,-0.1474,-0.1495,-0.1535,-0.1551,-0.1584,-0.1581,-0.1631,-0.1586,-0.163,-0.1601,-0.1594,-0.1587,-0.1589,-0.1444,-0.1382,-0.1512,-0.1598,-0.1597,-0.1595,-0.1594,-0.1593,0,-0.1169,-0.1255,-0.1321,-0.1343,-0.1419,-0.1457,-0.1492,-0.1532,-0.1553,-0.1623,-0.1647,-0.1692,-0.1715,-0.1724,-0.1696,-0.168,-0.1724,-0.1695,-0.1569,-0.156,-0.1636,-0.1626,-0.1727,-0.1726,-0.1726,-0.1726,-0.1726,0,-0.1166,-0.1218,-0.1336,-0.1372,-0.1437,-0.1487,-0.1544,-0.1585,-0.1641,-0.1656,-0.1703,-0.1714,-0.1746,-0.1752,-0.1738,-0.1677,-0.1759,-0.1595,-0.1571,-0.166,-0.1652,-0.1644,-0.1633,-0.1729,-0.1729,-0.1728,-0.1727,0,-0.1118,-0.1203,-0.1278,-0.1398,-0.143,-0.1473,-0.1546,-0.1581,-0.1657,-0.168,-0.1705,-0.1749,-0.1759,-0.1769,-0.1783,-0.1708,-0.1684,-0.1636,-0.1758,-0.1736,-0.1516,-0.1507,-0.1543,-0.1539,-0.1535,-0.1532,-0.1529,0,-0.1096,-0.1143,-0.1277,-0.1309,-0.1361,-0.1436,-0.1468,-0.1562,-0.1581,-0.1666,-0.1659,-0.1709,-0.1713,-0.1641,-0.1664,-0.1651,-0.1604,-0.1603,-0.1543,-0.1522,-0.1496,-0.1493,-0.1489,-0.1523,-0.1523,-0.1522,-0.1521,0,-0.1045,-0.1107,-0.1169,-0.1244,-0.1295,-0.1341,-0.1402,-0.141,-0.1499,-0.1587,-0.1566,-0.1558,-0.1556,-0.1551,-0.1536,-0.1516,-0.1617,-0.1565,-0.1572,-0.1515,-0.1499,-0.1476,-0.1477,-0.1508,-0.151,-0.1511,-0.1512,0,-0.099,-0.1012,-0.1102,-0.1144,-0.1205,-0.122,-0.1272,-0.1295,-0.1333,-0.1431,-0.1417,-0.1466,-0.153,-0.148,-0.1468,-0.1436,-0.1414,-0.1365,-0.1382,-0.1397,-0.1296,-0.125,-0.1175,0,0,0,0,0,-0.0931,-0.0946,-0.0989,-0.1038,-0.1094,-0.1127,-0.1206,-0.1262,-0.1354,-0.1296,-0.1353,-0.1341,-0.1318,-0.135,-0.1286,-0.1404,-0.1423,-0.1323,-0.1377,-0.1438,-0.1452,-0.1341,0,0,0,0,0,0,-0.089,-0.0932,-0.0956,-0.0937,-0.0944,-0.0994,-0.1037,-0.1108,-0.1087,-0.1183,-0.1179,-0.125,-0.1253,-0.133,-0.1254,-0.1263,-0.1267,-0.1362,-0.1358,-0.1429,-0.1443,-0.1454,-0.1345,0,0,0,0,0]},{"header":{"parameterUnit":"m.s-1","parameterCategory":2,"la1":30.2991,"la2":30.254,"lo1":-89.0895,"lo2":-89.0444,"dy":0.0017,"dx":0.0017,"nx":28,"ny":28,"refTime":"2025-08-31T09:00:00:Z","depth":"4","parameterNumber":3,"parameterNumberName":"V-component_of_CURRENTS"},"data":[0,0,0,0,0,0,0,0,0,0,0,0,0,0,0,0,0,0,0,0,0,0,0,0,0,0,0,0,0,0,0,0,0,0,0,0,0,0,0,0,0,0,0,0,0,0,0,0,0,0,0,0,0,0,0,0,0,0,-0.0007,-0.0007,0,0.0043,0.0043,0.0043,0.0067,0.0067,0.0067,0.0067,0.007,0.007,0.007,0,0,0,0,0,0,0,0,0,0,0,0,0,-0.0062,-0.0062,-0.0008,-0.0007,-0.0006,0.0043,0.0043,0.0044,0.0067,0.0067,0.0067,0.0067,0.007,0.007,0.007,0,0,0,0,0,0,0,0,0,0,0,0,0,-0.003,-0.0062,-0.0008,0.0013,0.0015,0.0042,0.0043,0.0044,0.0067,0.0067,0.0067,0.0067,0.007,0.007,0.007,0.0066,0,0,0.007,0.007,0,0,0,0,0,0,0,0,-0.0032,-0.0028,0.0009,0.0011,0.0014,0.005,0.0025,0.0049,0.0067,0.0045,0.0067,0.0067,0.006,0.0061,0.0068,0.0066,0.0066,0.007,0.007,0.007,0.007,0,0,0,0,0,0,0,-0.0034,-0.003,0.0011,0.001,0.0013,0.0027,0.0031,0.003,0.0049,0.0047,0.0049,0.0058,0.0061,0.0068,0.0068,0.0066,0.007,0.007,0.007,0.007,0.0064,0.0063,0,0,0,0,0,0,-0.0038,-0.0032,0.0009,0.0012,-0.0007,0.0027,0.0032,0.0037,0.005,0.0053,0.0057,0.0058,0.0068,0.0068,0.0068,0.006,0.007,0.007,0.007,0.0064,0.0064,0.0063,0,0,0,0,0,0,-0.0039,-0.0035,0.0007,-0.0007,-0.0001,0.0028,0.0033,0.0038,0.0048,0.0059,0.006,0.0063,0.0068,0.0068,0.0063,0.0061,0.007,0.007,0.0064,0.0064,0.0063,0.0047,0,0,0,0,0,0,-0.0041,-0.0036,-0.004,-0.0008,0.0,0.0012,0.0033,0.0039,0.0054,0.0056,0.0064,0.0065,0.0068,0.0063,0.0063,0.0061,0.007,0.0064,0.0064,0.0064,0.0048,0.0046,0.0045,0,0,0,0,0,-0.0044,-0.0055,-0.004,-0.0035,-0.0004,0.0012,0.0016,0.0037,0.0054,0.0049,0.0058,0.0064,0.0061,0.0062,0.0062,0.0061,0.0064,0.0064,0.0064,0.0048,0.0047,0.0045,0,0,0,0,0,0,-0.0081,-0.0052,-0.0036,-0.0037,-0.0016,0.0016,0.0012,0.0037,0.0043,0.0043,0.0059,0.0059,0.0055,0.0059,0.006,0.0059,0.0065,0.0065,0.0054,0.0052,0.0051,0.0044,0.0069,0,0,0,0,0,-0.0089,-0.009,-0.0056,-0.0057,-0.0051,-0.0016,-0.0007,0.0011,0.0026,0.0031,0.0041,0.005,0.0054,0.0054,0.0054,0.005,0.0071,0.0051,0.005,0.0048,0.0043,0.0072,0.0073,0.0062,0.0062,0.0062,0,0,-0.0103,-0.0086,-0.0087,-0.0065,-0.0049,-0.0047,-0.0012,-0.0002,0.0004,0.0028,0.0029,0.0042,0.0051,0.0048,0.0047,0.0051,0.0065,0.0048,0.0047,0.0042,0.0072,0.0073,0.0074,0.0062,0.0062,0.0062,0,0,-0.0132,-0.0118,-0.0129,-0.0117,-0.0093,-0.0072,-0.0069,-0.0037,-0.0023,-0.0016,0.0005,0.0018,0.0021,0.0033,0.0038,0.003,0.0056,0.0032,0.002,0.0049,0.005,0.0051,0.0091,0.0096,0.0033,0.0033,0.0033,0,-0.0147,-0.0153,-0.013,-0.0135,-0.0128,-0.0086,-0.0092,-0.0074,-0.0044,-0.0035,-0.0025,0.0003,0.0013,0.0022,0.0022,0.0026,0.0051,0.0026,0.0047,0.0049,0.005,0.0091,0.0096,0.0032,0.0032,0.0032,0.0032,0,-0.0182,-0.0185,-0.0194,-0.0185,-0.0177,-0.0177,-0.0145,-0.0134,-0.0107,-0.0081,-0.0064,-0.0039,-0.0021,-0.001,0.0002,0.0021,0.0039,0.0042,0.0052,0.0051,0.0093,0.0099,0.0031,0.0031,0.0032,0.0032,0,0,-0.0212,-0.0217,-0.0219,-0.0224,-0.0201,-0.0199,-0.0192,-0.0172,-0.0162,-0.013,-0.0113,-0.009,-0.006,-0.0051,-0.0022,0.0007,0.0048,0.0029,0.0031,0.0069,0.0124,0.0117,0.0123,0.0058,0.0059,0.0059,0.0154,0,-0.0242,-0.0273,-0.0259,-0.0279,-0.0292,-0.0256,-0.0253,-0.0229,-0.0196,-0.0172,-0.0128,-0.0108,-0.0079,-0.0063,-0.003,0.0029,0.0061,0.0023,0.0118,0.0121,0.0115,0.0129,0.0061,0.0158,0.016,0.0161,0.0162,0,-0.0275,-0.0292,-0.0328,-0.0329,-0.033,-0.0334,-0.0318,-0.0306,-0.0261,-0.0235,-0.0196,-0.0152,-0.01,-0.0078,0.0022,-0.0002,0.0055,0.0102,0.0107,0.0107,0.0125,0.0157,0.0173,0.0172,0.0171,0.017,0.017,0,-0.0316,-0.0333,-0.0367,-0.0369,-0.0368,-0.0374,-0.0366,-0.0331,-0.0321,-0.027,-0.0249,-0.0181,-0.0142,-0.0063,0.004,0.0035,0.0153,0.0158,0.0206,0.0207,0.0193,0.019,0.022,0.0219,0.0219,0.0219,0.0219,0,-0.0349,-0.0372,-0.0393,-0.0413,-0.0444,-0.0422,-0.0434,-0.0411,-0.0376,-0.0361,-0.0286,-0.0251,-0.0137,-0.0052,0.0037,0.0145,0.0153,0.0207,0.0228,0.0186,0.0181,0.0198,0.0195,0.0223,0.0222,0.0221,0.022,0,-0.0383,-0.0398,-0.0437,-0.0459,-0.0467,-0.0488,-0.0486,-0.0485,-0.0446,-0.0419,-0.0403,-0.03,-0.0183,-0.0062,0.0076,0.0136,0.0242,0.0274,0.0231,0.0248,0.0282,0.0276,0.0343,0.0343,0.0344,0.0344,0.0344,0,-0.0399,-0.043,-0.0481,-0.0508,-0.052,-0.0545,-0.0557,-0.053,-0.0518,-0.0445,-0.0429,-0.0316,-0.0236,-0.0033,0.0082,0.0254,0.0267,0.0321,0.029,0.0279,0.0294,0.0287,0.0281,0.0345,0.0345,0.0345,0.0345,0,-0.0431,-0.0457,-0.0492,-0.0554,-0.0584,-0.0608,-0.0616,-0.0615,-0.0567,-0.0536,-0.0436,-0.032,-0.0189,-0.0034,0.0098,0.0215,0.0287,0.0326,0.0326,0.0297,0.0283,0.0295,0.0289,0.0347,0.0347,0.0346,0.0346,0,-0.0447,-0.0483,-0.0537,-0.0582,-0.0627,-0.0647,-0.0651,-0.0619,-0.0599,-0.0508,-0.0479,-0.0323,-0.0233,-0.0054,0.0069,0.0185,0.0207,0.0233,0.0238,0.0237,0.017,0.0135,0.0174,0,0,0,0,0,-0.0456,-0.0501,-0.0555,-0.0605,-0.0649,-0.0669,-0.0675,-0.0665,-0.0624,-0.0558,-0.0513,-0.0383,-0.0183,-0.0092,0.0023,0.006,0.0213,0.0197,0.0241,0.0355,0.0353,0.029,0,0,0,0,0,0,-0.0463,-0.0524,-0.0557,-0.061,-0.0645,-0.0683,-0.0687,-0.0661,-0.0611,-0.0556,-0.0446,-0.0372,-0.0177,-0.025,0.002,0.0056,0.0096,0.0296,0.0298,0.0356,0.0354,0.0353,0.0288,0,0,0,0,0]}]]